Location: Alpha Ridge Park
(39.3209°N, 76.9128°W)
Time: 17:17:44
(UTC-04:00)

Vanguard 2 Rocket - Pass Details

Date: 29 May 2019
Orbit: 555 x 3326 km, 32.9° (Epoch: 24 June)

Event Time Altitude Azimuth Distance (km) Brightness Sun altitude
Rises 08:13:59 0° 267° (W) 7,240 10.9 26.5°
Reaches altitude 10° 08:19:12 10° 266° (W) 6,051 10.6 27.5°
Maximum altitude 08:36:50 65° 190° (S) 2,456 9.5 30.9°
Drops below altitude 10° 08:47:16 10° 111° (ESE) 3,772 11.2 32.9°
Sets 08:49:45 0° 108° (ESE) 4,463 11.4 33.4°
